Location: Coll
(42.4728°N, 0.7714°E)
Time: 12:39:51
(UTC+00:00)

Cosmos 1269 Rocket - Pass Details

Date: 23 October 2020
Orbit: 773 x 779 km, 74.1° (Epoch: 01 December)

Event Time Altitude Azimuth Distance (km) Brightness Sun altitude
Exits shadow 04:12:07 - 186° (S) 2,645 6.7 -24.2°
Reaches altitude 10° 04:12:59 10° 185° (S) 2,320 6.4 -24.0°
Maximum altitude 04:18:09 61° 106° (ESE) 882 4.5 -23.0°
Drops below altitude 10° 04:23:23 10° 27° (NNE) 2,338 6.9 -22.1°
Sets 04:25:48 0° 24° (NNE) 3,271 7.6 -21.6°
